[[{"header":{"parameterUnit":"m.s-1","parameterCategory":2,"la1":30.2991,"la2":30.254,"lo1":-89.0895,"lo2":-89.0444,"dy":0.0017,"dx":0.0017,"nx":28,"ny":28,"refTime":"2024-06-30T21:00:00:Z","depth":"0","parameterNumber":2,"parameterNumberName":"U-component_of_CURRENTS"},"data":[0,0,0,0,0,0,0,0,0,0,0,0,0,0,0,0,0,0,0,0,0,0,0,0,0,0,0,0,0,0,0,0,0,0,0,0,0,0,0,0,0,0,0,0,0,0,0,0,0,0,0,0,0,0,0,0,0,0,-0.0014,-0.0016,0,-0.007,-0.0069,-0.0068,-0.0081,-0.0082,-0.0084,-0.0085,-0.0221,-0.0223,-0.0226,0,0,0,0,0,0,0,0,0,0,0,0,0,0.008,0.008,-0.0014,-0.0016,-0.0019,-0.007,-0.0069,-0.0068,-0.0081,-0.0082,-0.0084,-0.0085,-0.022,-0.0223,-0.0226,0,0,0,0,0,0,0,0,0,0,0,0,0,0.005,0.008,-0.0014,-0.0044,-0.0049,-0.007,-0.0069,-0.0068,-0.0081,-0.0082,-0.0084,-0.0086,-0.0219,-0.0223,-0.0226,-0.0212,0,0,-0.0238,-0.0239,0,0,0,0,0,0,0,0,0.0052,0.0049,-0.0038,-0.0043,-0.0048,-0.0086,-0.0087,-0.0126,-0.008,-0.005,-0.0085,-0.0087,-0.0194,-0.0199,-0.0179,-0.0218,-0.0224,-0.0238,-0.024,-0.0242,-0.0243,0,0,0,0,0,0,0,0.0054,0.0051,-0.0018,-0.004,-0.0047,-0.0058,-0.0061,-0.0092,-0.0098,-0.0052,-0.0058,-0.0092,-0.0195,-0.0175,-0.0183,-0.0226,-0.0238,-0.0241,-0.0243,-0.0245,-0.0155,-0.0151,0,0,0,0,0,0,0.0028,0.0054,-0.0017,-0.0022,-0.0022,-0.0059,-0.0063,-0.0057,-0.0096,-0.0108,-0.009,-0.0093,-0.0168,-0.0179,-0.0188,0.0023,-0.0242,-0.0245,-0.0247,-0.016,-0.0154,-0.0149,0,0,0,0,0,0,0.0031,0.0024,-0.0015,-0.0002,-0.001,-0.006,-0.0053,-0.0058,-0.005,-0.0128,-0.0138,-0.0083,-0.017,-0.0183,-0.0203,0.0009,-0.0247,-0.025,-0.0165,-0.0158,-0.0152,0.0318,0,0,0,0,0,0,0.0035,0.0027,0.0059,-0.0002,-0.0013,0.0026,-0.0054,-0.0058,-0.0077,-0.008,-0.0124,-0.0138,-0.0172,-0.0197,-0.0207,-0.0001,-0.0253,-0.0171,-0.0162,-0.0154,0.0297,0.034,0.0377,0,0,0,0,0,0.0039,0.0097,0.0062,0.0053,0.0023,0.0028,0.0029,-0.0006,-0.0075,-0.0016,-0.0084,-0.0137,-0.0147,-0.0198,-0.021,0.0001,-0.0175,-0.0164,-0.0154,0.0279,0.0332,0.0376,0,0,0,0,0,0,0.0176,0.0097,0.0058,0.0095,0.0076,0.002,0.0066,-0.0004,-0.0008,-0.0017,-0.0116,-0.0129,-0.0034,-0.0136,-0.0191,0.0041,-0.0154,-0.0146,0.018,0.0228,0.0268,0.041,-0.0256,0,0,0,0,0,0.0208,0.0222,0.0151,0.0186,0.0187,0.0118,0.0114,0.0082,0.0039,0.0037,-0.0001,-0.0035,0.0005,0.0008,0.0014,0.0092,0.0115,0.0221,0.0262,0.0298,0.0399,0.0593,0.0666,-0.0115,-0.0115,-0.0115,0,0,0.0269,0.0221,0.0234,0.0213,0.0202,0.0281,0.0121,0.0141,0.0236,0.0019,0.0151,0.0101,0.0049,0.0197,0.023,0.0133,0.0526,0.0311,0.0343,0.0427,0.0613,0.069,0.0759,-0.0108,-0.0109,-0.011,0,0,0.0408,0.0366,0.044,0.0444,0.0414,0.0398,0.0398,0.0365,0.0398,0.0459,0.0382,0.0457,0.0429,0.0527,0.0544,0.0786,0.0736,0.0749,0.1085,0.1273,0.1343,0.1404,0.1537,0.1607,0.0769,0.077,0.0771,0,0.0488,0.0555,0.047,0.0553,0.058,0.0462,0.0578,0.0625,0.0595,0.0659,0.056,0.0689,0.0651,0.0899,0.1017,0.0912,0.0949,0.0921,0.1342,0.1402,0.1458,0.1579,0.165,0.0794,0.0791,0.0789,0.0786,0,0.0695,0.075,0.0803,0.0876,0.0917,0.0984,0.1004,0.1081,0.1061,0.1093,0.129,0.1265,0.134,0.1375,0.1284,0.1663,0.1541,0.1384,0.1253,0.1568,0.167,0.1737,0.0828,0.082,0.0812,0.0807,0,0,0.0875,0.0931,0.0957,0.1014,0.1077,0.112,0.1331,0.1477,0.1596,0.168,0.1875,0.2054,0.2003,0.2023,0.1946,0.2145,0.2578,0.1958,0.1957,0.2154,0.2976,0.2957,0.3023,0.2483,0.2497,0.2508,0.2896,0,0.1068,0.1234,0.1241,0.1448,0.154,0.1539,0.173,0.1853,0.1921,0.2088,0.22,0.2328,0.2256,0.2274,0.2508,0.2497,0.2771,0.2487,0.2587,0.2592,0.2591,0.3108,0.31,0.3453,0.2959,0.297,0.2977,0,0.1298,0.1356,0.1562,0.1678,0.1728,0.1856,0.2073,0.2217,0.2446,0.2494,0.2699,0.2691,0.3015,0.2847,0.3249,0.3047,0.313,0.3157,0.3167,0.3053,0.2702,0.3049,0.3588,0.3431,0.3077,0.3069,0.3061,0,0.1436,0.1594,0.1738,0.1785,0.1928,0.2052,0.2149,0.2358,0.2465,0.2735,0.2802,0.3139,0.3224,0.3476,0.3542,0.3417,0.3924,0.371,0.3826,0.3816,0.3795,0.3763,0.4265,0.4147,0.4146,0.4145,0.4144,0,0.1628,0.1751,0.1797,0.1881,0.2065,0.2144,0.2355,0.2494,0.2676,0.2819,0.2991,0.3141,0.3388,0.3621,0.3731,0.4017,0.4097,0.408,0.4012,0.3945,0.3924,0.3752,0.362,0.4159,0.4156,0.4153,0.4151,0,0.1778,0.181,0.1959,0.2087,0.2125,0.2257,0.2383,0.2503,0.2679,0.2863,0.2946,0.3214,0.3549,0.3784,0.414,0.421,0.4403,0.454,0.4429,0.4349,0.4299,0.419,0.4476,0.4386,0.4826,0.4829,0.4832,0,0.1872,0.1956,0.206,0.209,0.2144,0.2283,0.2351,0.2507,0.2592,0.288,0.2963,0.3333,0.357,0.4116,0.441,0.4775,0.4555,0.4902,0.4744,0.4511,0.4338,0.4042,0.3919,0.488,0.4883,0.4885,0.4887,0,0.2018,0.2035,0.2105,0.2151,0.2206,0.2269,0.2369,0.2426,0.2603,0.2764,0.3001,0.3225,0.3789,0.418,0.4647,0.4858,0.4714,0.496,0.4809,0.4616,0.4252,0.4048,0.432,0.4909,0.4907,0.4905,0.4904,0.4903,0.2073,0.2113,0.2132,0.2182,0.2209,0.2221,0.2261,0.2353,0.249,0.2702,0.2936,0.3253,0.3858,0.456,0.4743,0.506,0.4889,0.4998,0.4944,0.4707,0.4508,0.4832,0.5245,0.5245,0.5244,0.5244,0.5244,0,0.2076,0.2083,0.2133,0.2143,0.2122,0.2166,0.2222,0.2245,0.2356,0.2632,0.2854,0.3453,0.3975,0.4479,0.5059,0.5025,0.4825,0.4921,0.454,0.4462,0.4898,0.4782,0.5004,0.5005,0.5005,0.5005,0.5005,0.5005,0.2055,0.2061,0.2071,0.2019,0.2018,0.1974,0.1986,0.2071,0.2241,0.2556,0.2871,0.3169,0.3847,0.4626,0.495,0.4927,0.4537,0.4429,0.428,0.4578,0.4576,0.4574,0.444,0.4588,0.4588,0.3724,0.3718,0.3713]},{"header":{"parameterUnit":"m.s-1","parameterCategory":2,"la1":30.2991,"la2":30.254,"lo1":-89.0895,"lo2":-89.0444,"dy":0.0017,"dx":0.0017,"nx":28,"ny":28,"refTime":"2024-06-30T21:00:00:Z","depth":"0","parameterNumber":3,"parameterNumberName":"V-component_of_CURRENTS"},"data":[0,0,0,0,0,0,0,0,0,0,0,0,0,0,0,0,0,0,0,0,0,0,0,0,0,0,0,0,0,0,0,0,0,0,0,0,0,0,0,0,0,0,0,0,0,0,0,0,0,0,0,0,0,0,0,0,0,0,0.0297,0.0299,0,0.031,0.0309,0.0308,0.0255,0.0254,0.0254,0.0253,0.0224,0.0224,0.0224,0,0,0,0,0,0,0,0,0,0,0,0,0,0.0278,0.0278,0.0297,0.0299,0.03,0.031,0.0309,0.0308,0.0255,0.0254,0.0254,0.0253,0.0225,0.0224,0.0224,0,0,0,0,0,0,0,0,0,0,0,0,0,0.0277,0.0277,0.0297,0.0284,0.0283,0.031,0.0309,0.0308,0.0255,0.0254,0.0254,0.0253,0.0225,0.0224,0.0224,0.0234,0,0,0.0222,0.0222,0,0,0,0,0,0,0,0,0.0277,0.0276,0.0284,0.0285,0.0285,0.0291,0.0292,0.0285,0.0255,0.0253,0.0253,0.0253,0.0251,0.0248,0.0236,0.0233,0.0231,0.0222,0.0222,0.0221,0.0221,0,0,0,0,0,0,0,0.0277,0.0276,0.029,0.0286,0.0286,0.0295,0.0292,0.029,0.0246,0.0253,0.0252,0.0273,0.0249,0.0236,0.0235,0.0231,0.0222,0.0222,0.0221,0.0221,0.0277,0.0279,0,0,0,0,0,0,0.0298,0.0275,0.029,0.0292,0.0293,0.0297,0.0293,0.0279,0.0246,0.0245,0.0274,0.0271,0.0237,0.0235,0.0234,0.0318,0.0221,0.0221,0.0221,0.0275,0.0277,0.0279,0,0,0,0,0,0,0.0296,0.0297,0.0289,0.0296,0.0297,0.0299,0.0283,0.028,0.028,0.0265,0.0259,0.028,0.0237,0.0234,0.0266,0.0313,0.0221,0.022,0.0273,0.0276,0.0278,0.0439,0,0,0,0,0,0,0.0295,0.0296,0.0276,0.0296,0.0298,0.0318,0.0285,0.0281,0.0299,0.0295,0.0269,0.0264,0.0236,0.0268,0.0266,0.0311,0.022,0.0271,0.0274,0.0277,0.0431,0.0447,0.046,0,0,0,0,0,0.0294,0.0295,0.0274,0.0277,0.0275,0.032,0.0321,0.0313,0.0301,0.0306,0.0307,0.0265,0.0286,0.027,0.0267,0.0313,0.0269,0.0273,0.0277,0.0425,0.0444,0.0459,0,0,0,0,0,0,0.0283,0.0291,0.0269,0.0269,0.0295,0.0316,0.0325,0.0327,0.0328,0.033,0.0299,0.0296,0.034,0.0303,0.0284,0.0335,0.0267,0.027,0.038,0.0397,0.0411,0.0509,0.0219,0,0,0,0,0,0.0271,0.0275,0.0286,0.0297,0.03,0.0311,0.0324,0.0334,0.0353,0.0351,0.0344,0.0337,0.0352,0.0357,0.0353,0.0388,0.0364,0.041,0.0425,0.0437,0.0514,0.0491,0.0511,0.0293,0.0293,0.0292,0,0,0.0283,0.0286,0.0291,0.0297,0.0304,0.036,0.0314,0.0358,0.0434,0.0351,0.0427,0.0392,0.0373,0.0417,0.0431,0.0394,0.048,0.0442,0.0454,0.0525,0.0497,0.0519,0.0538,0.0295,0.0295,0.0294,0,0,0.0348,0.0296,0.0329,0.035,0.0383,0.0401,0.0423,0.0451,0.0475,0.0546,0.0509,0.0523,0.0529,0.0538,0.0542,0.0635,0.0559,0.0602,0.0759,0.0734,0.0753,0.0769,0.0745,0.0758,0.0606,0.0607,0.0607,0,0.037,0.0399,0.0354,0.0402,0.0459,0.0432,0.0523,0.0546,0.0596,0.0656,0.0595,0.0655,0.0608,0.0708,0.073,0.0676,0.0642,0.0695,0.0756,0.0772,0.0786,0.0757,0.077,0.0615,0.0614,0.0613,0.0612,0,0.0467,0.0492,0.0522,0.0574,0.0619,0.0692,0.0735,0.0785,0.0808,0.0848,0.0942,0.0883,0.0929,0.0887,0.0845,0.0929,0.0864,0.0776,0.072,0.0818,0.078,0.0791,0.0627,0.0624,0.0621,0.0619,0,0,0.0552,0.0586,0.06,0.0662,0.0725,0.0792,0.0913,0.1037,0.1146,0.1153,0.1296,0.1287,0.1246,0.1249,0.1167,0.1143,0.1173,0.1017,0.1011,0.1011,0.1123,0.1071,0.1075,0.1079,0.1082,0.1085,0.1049,0,0.0663,0.0773,0.0783,0.0949,0.1022,0.1058,0.1188,0.1293,0.1348,0.1455,0.1435,0.1503,0.1385,0.1388,0.1363,0.1231,0.1212,0.1193,0.1017,0.1014,0.0969,0.1091,0.1105,0.1076,0.1059,0.106,0.1061,0,0.0782,0.0841,0.0989,0.1153,0.1194,0.1299,0.1507,0.1616,0.1742,0.1782,0.1846,0.1807,0.1836,0.1667,0.1571,0.1558,0.1389,0.1259,0.1252,0.1177,0.0984,0.0977,0.1093,0.0769,0.1076,0.1075,0.1074,0,0.0879,0.1017,0.1143,0.119,0.1344,0.1462,0.1572,0.1725,0.1843,0.1976,0.2039,0.2075,0.2054,0.1919,0.1672,0.1621,0.1515,0.1389,0.1199,0.119,0.1167,0.1152,0.0978,0.1325,0.1326,0.1326,0.1326,0,0.1016,0.1124,0.1193,0.1264,0.1476,0.1559,0.1788,0.1898,0.205,0.2191,0.2195,0.2273,0.2105,0.2012,0.1787,0.1558,0.1603,0.13,0.1208,0.1217,0.1208,0.0891,0.0694,0.1324,0.1324,0.1325,0.1325,0,0.1116,0.1143,0.1294,0.1447,0.1516,0.1667,0.1894,0.204,0.2163,0.2335,0.238,0.2426,0.233,0.2135,0.1891,0.1682,0.1299,0.1344,0.1377,0.1292,0.0839,0.0652,0.0551,0.0366,0.1192,0.1191,0.119,0,0.1179,0.1247,0.1398,0.1484,0.1561,0.1764,0.1908,0.2086,0.2227,0.2414,0.25,0.2487,0.2503,0.2191,0.1852,0.1538,0.123,0.1289,0.121,0.0886,0.0608,0.0567,0.0414,0.122,0.122,0.1219,0.1219,0,0.1299,0.1319,0.1419,0.1571,0.1719,0.1902,0.2111,0.223,0.2421,0.2552,0.2687,0.2721,0.249,0.2235,0.1824,0.1574,0.1093,0.1267,0.0929,0.0659,0.0613,0.0364,0.115,0.1215,0.1215,0.1216,0.1216,0.1216,0.1365,0.1437,0.1519,0.1681,0.1832,0.201,0.2156,0.2336,0.2538,0.2737,0.2786,0.2868,0.2566,0.2057,0.1647,0.0975,0.0986,0.0756,0.0569,0.0572,0.0373,0.1165,0.1113,0.1113,0.1112,0.1112,0.1112,0,0.1427,0.149,0.1631,0.1798,0.1942,0.2027,0.2268,0.2392,0.2578,0.2793,0.2916,0.2902,0.2379,0.1846,0.1021,0.0412,0.0223,0.0075,-0.0009,-0.0133,0.0572,0.0545,0.0371,0.0372,0.0372,0.0372,0.0373,0.0373,0.1456,0.1557,0.1619,0.1839,0.1963,0.2148,0.2267,0.2445,0.2636,0.2886,0.304,0.3189,0.2894,0.1295,0.0127,-0.0186,-0.0719,-0.0732,-0.103,-0.0615,-0.0566,-0.052,-0.0591,-0.1,-0.1001,-0.1608,-0.1616,-0.1621]}],[{"header":{"parameterUnit":"m.s-1","parameterCategory":2,"la1":30.2991,"la2":30.254,"lo1":-89.0895,"lo2":-89.0444,"dy":0.0017,"dx":0.0017,"nx":28,"ny":28,"refTime":"2024-06-30T21:00:00:Z","depth":"2","parameterNumber":2,"parameterNumberName":"U-component_of_CURRENTS"},"data":[0,0,0,0,0,0,0,0,0,0,0,0,0,0,0,0,0,0,0,0,0,0,0,0,0,0,0,0,0,0,0,0,0,0,0,0,0,0,0,0,0,0,0,0,0,0,0,0,0,0,0,0,0,0,0,0,0,0,0.18,0.1801,0,0.1877,0.1878,0.1879,0.1901,0.1901,0.19,0.19,0.202,0.2024,0.2027,0,0,0,0,0,0,0,0,0,0,0,0,0,0.1678,0.168,0.18,0.1801,0.1802,0.1877,0.1878,0.1879,0.1901,0.1901,0.19,0.19,0.2019,0.2023,0.2028,0,0,0,0,0,0,0,0,0,0,0,0,0,0.174,0.1681,0.18,0.1823,0.1826,0.1877,0.1878,0.188,0.1901,0.1901,0.19,0.19,0.2018,0.2023,0.2028,0.2072,0,0,0.2045,0.2047,0,0,0,0,0,0,0,0,0.1736,0.1744,0.1818,0.1821,0.1825,0.188,0.1879,0.1946,0.1902,0.1872,0.19,0.1899,0.1978,0.1987,0.2001,0.2078,0.2083,0.2045,0.2048,0.2051,0.2052,0,0,0,0,0,0,0,0.1732,0.1741,0.183,0.182,0.1823,0.1831,0.1839,0.1892,0.1928,0.1875,0.1877,0.1886,0.198,0.1996,0.2004,0.2085,0.2045,0.205,0.2053,0.2055,0.2281,0.2284,0,0,0,0,0,0,0.1725,0.1738,0.1828,0.1833,0.1779,0.1834,0.1843,0.1862,0.1926,0.1935,0.1886,0.1887,0.1987,0.1998,0.2009,0.2128,0.205,0.2055,0.2059,0.2279,0.2282,0.2285,0,0,0,0,0,0,0.1722,0.1732,0.1825,0.1786,0.1799,0.1836,0.1858,0.1864,0.1889,0.1935,0.1944,0.1906,0.1987,0.2001,0.2084,0.213,0.2058,0.2063,0.2275,0.228,0.2284,0.2326,0,0,0,0,0,0,0.1718,0.1731,0.1746,0.1786,0.1801,0.187,0.1859,0.1866,0.1895,0.1897,0.1955,0.1965,0.1988,0.2076,0.2089,0.2136,0.2067,0.2272,0.2277,0.2282,0.2321,0.2332,0.234,0,0,0,0,0,0.1714,0.1737,0.1747,0.1758,0.1819,0.1871,0.188,0.1903,0.1897,0.1921,0.1967,0.1964,0.2118,0.2083,0.2097,0.2147,0.2269,0.2276,0.2282,0.2317,0.233,0.234,0,0,0,0,0,0,0.1685,0.1743,0.1754,0.1792,0.1834,0.1875,0.19,0.1911,0.1964,0.1971,0.2001,0.2016,0.2108,0.2126,0.2085,0.2231,0.2193,0.2203,0.2215,0.2227,0.2237,0.2221,0.2071,0,0,0,0,0,0.1687,0.1725,0.1774,0.1805,0.1829,0.1865,0.1889,0.191,0.1958,0.1979,0.2021,0.2077,0.2146,0.2182,0.2242,0.2319,0.2336,0.2363,0.2372,0.238,0.238,0.246,0.2476,0.2306,0.2306,0.2306,0,0,0.1679,0.172,0.1737,0.1802,0.1836,0.1887,0.1879,0.1928,0.1975,0.1988,0.2069,0.2115,0.2176,0.2268,0.231,0.2287,0.2438,0.2388,0.2394,0.239,0.2468,0.2484,0.2499,0.231,0.2309,0.2309,0,0,0.1696,0.1726,0.177,0.1813,0.1877,0.1907,0.1923,0.1982,0.2015,0.2094,0.2126,0.2198,0.2288,0.2348,0.2386,0.2485,0.2488,0.2507,0.2541,0.2619,0.2633,0.2645,0.268,0.2696,0.2508,0.2509,0.2509,0,0.1684,0.1751,0.1788,0.1847,0.1887,0.1918,0.1975,0.2019,0.2097,0.2137,0.2127,0.2283,0.2327,0.2449,0.2482,0.2506,0.2534,0.2487,0.2629,0.2642,0.2653,0.2687,0.2703,0.2511,0.2511,0.2511,0.251,0,0.1743,0.1796,0.1827,0.1913,0.1961,0.2015,0.208,0.213,0.2163,0.2205,0.2321,0.2386,0.2475,0.2506,0.2522,0.2643,0.263,0.2631,0.2591,0.2673,0.2703,0.2719,0.2515,0.2514,0.2514,0.2513,0,0,0.1718,0.1843,0.1856,0.19,0.2004,0.2041,0.2132,0.2221,0.2272,0.2347,0.2422,0.2541,0.2564,0.261,0.2652,0.271,0.2813,0.2703,0.2706,0.2721,0.2964,0.2819,0.2821,0.2841,0.2845,0.2847,0.2947,0,0.1755,0.1861,0.1926,0.2016,0.207,0.2136,0.2209,0.229,0.2356,0.2433,0.2511,0.2601,0.2611,0.2656,0.2726,0.2796,0.286,0.2784,0.2897,0.29,0.2747,0.2837,0.2629,0.2689,0.2963,0.2965,0.2967,0,0.1796,0.1864,0.1959,0.2063,0.2093,0.215,0.226,0.2335,0.2452,0.2504,0.2605,0.266,0.2782,0.276,0.2926,0.288,0.293,0.2966,0.2971,0.2828,0.2784,0.2656,0.2708,0.2994,0.2991,0.299,0.2988,0,0.1748,0.1882,0.1953,0.1992,0.2115,0.2166,0.2234,0.2353,0.2421,0.2554,0.2608,0.275,0.2825,0.2921,0.3003,0.2981,0.3148,0.3131,0.305,0.3039,0.2878,0.2846,0.325,0.325,0.325,0.325,0.3249,0,0.1755,0.1802,0.1931,0.1961,0.2034,0.2138,0.2226,0.2306,0.2437,0.252,0.2641,0.2723,0.2871,0.2978,0.3036,0.3085,0.3192,0.3066,0.3066,0.2885,0.2854,0.3127,0.3111,0.3253,0.3253,0.3252,0.3251,0,0.167,0.1766,0.1831,0.1964,0.2007,0.205,0.2199,0.226,0.2396,0.251,0.2557,0.2733,0.2873,0.2993,0.3147,0.3115,0.318,0.3173,0.2922,0.2887,0.3006,0.2992,0.3088,0.3084,0.3081,0.3078,0.3075,0,0.1627,0.1659,0.1791,0.1832,0.1889,0.1984,0.2047,0.2208,0.2284,0.2506,0.2546,0.2729,0.2818,0.2965,0.2977,0.304,0.3151,0.2849,0.276,0.3005,0.2996,0.2987,0.2978,0.2577,0.2571,0.2566,0.2562,0,0.1529,0.1579,0.1637,0.1729,0.1801,0.1883,0.1996,0.2048,0.2243,0.2344,0.2488,0.2577,0.272,0.2681,0.2741,0.2745,0.2812,0.2739,0.3118,0.2622,0.2524,0.2514,0.2523,0.2516,0.2521,0.2524,0.2526,0.2528,0.1435,0.1454,0.1548,0.1624,0.1707,0.1782,0.1825,0.1945,0.2045,0.2172,0.2309,0.2366,0.2435,0.2394,0.238,0.2376,0.2539,0.2449,0.2466,0.2489,0.2383,0.2281,0.2208,0.221,0.2213,0.2215,0.2217,0,0.1334,0.1394,0.1447,0.155,0.1602,0.1695,0.1793,0.1817,0.1894,0.1988,0.207,0.1913,0.1919,0.2037,0.1945,0.1931,0.1932,0.1887,0.1892,0.1938,0.1979,0.1848,0.1531,0.1529,0.1527,0.1525,0,0,0.1292,0.1321,0.1366,0.1435,0.1514,0.1577,0.1621,0.1641,0.1697,0.164,0.164,0.177,0.1916,0.1665,0.1665,0.1598,0.1754,0.1542,0.2092,0.2141,0.2179,0.23,0.2149,0,0,0,0,0]},{"header":{"parameterUnit":"m.s-1","parameterCategory":2,"la1":30.2991,"la2":30.254,"lo1":-89.0895,"lo2":-89.0444,"dy":0.0017,"dx":0.0017,"nx":28,"ny":28,"refTime":"2024-06-30T21:00:00:Z","depth":"2","parameterNumber":3,"parameterNumberName":"V-component_of_CURRENTS"},"data":[0,0,0,0,0,0,0,0,0,0,0,0,0,0,0,0,0,0,0,0,0,0,0,0,0,0,0,0,0,0,0,0,0,0,0,0,0,0,0,0,0,0,0,0,0,0,0,0,0,0,0,0,0,0,0,0,0,0,-0.0893,-0.0892,0,-0.0842,-0.0841,-0.084,-0.0803,-0.0803,-0.0803,-0.0803,-0.0767,-0.0766,-0.0765,0,0,0,0,0,0,0,0,0,0,0,0,0,-0.0967,-0.0966,-0.0893,-0.0892,-0.0892,-0.0842,-0.0841,-0.084,-0.0803,-0.0803,-0.0803,-0.0803,-0.0767,-0.0766,-0.0765,0,0,0,0,0,0,0,0,0,0,0,0,0,-0.0925,-0.0965,-0.0893,-0.0869,-0.0867,-0.0842,-0.0841,-0.084,-0.0803,-0.0803,-0.0803,-0.0803,-0.0768,-0.0766,-0.0765,-0.0759,0,0,-0.0761,-0.076,0,0,0,0,0,0,0,0,-0.0927,-0.0922,-0.0873,-0.0871,-0.0868,-0.0831,-0.0854,-0.0814,-0.0803,-0.0825,-0.0803,-0.0803,-0.0791,-0.0788,-0.0775,-0.0758,-0.0756,-0.0761,-0.076,-0.0759,-0.0759,0,0,0,0,0,0,0,-0.093,-0.0924,-0.087,-0.0873,-0.087,-0.0865,-0.0858,-0.0846,-0.0808,-0.0823,-0.0821,-0.0819,-0.079,-0.0776,-0.0774,-0.0756,-0.0761,-0.076,-0.0759,-0.0758,-0.0698,-0.0697,0,0,0,0,0,0,-0.0941,-0.0927,-0.0872,-0.0869,-0.0901,-0.0863,-0.0856,-0.0841,-0.0807,-0.0803,-0.0819,-0.0817,-0.0779,-0.0776,-0.0773,-0.0721,-0.0759,-0.0758,-0.0757,-0.0699,-0.0698,-0.0697,0,0,0,0,0,0,-0.0943,-0.0936,-0.0874,-0.0899,-0.0891,-0.0862,-0.0846,-0.084,-0.0823,-0.0805,-0.08,-0.0808,-0.0778,-0.0774,-0.0747,-0.0721,-0.0758,-0.0756,-0.07,-0.0698,-0.0697,-0.0645,0,0,0,0,0,0,-0.0945,-0.0937,-0.0925,-0.09,-0.089,-0.0854,-0.0846,-0.0839,-0.0823,-0.082,-0.0794,-0.079,-0.0778,-0.0749,-0.0746,-0.072,-0.0755,-0.0701,-0.0699,-0.0698,-0.0648,-0.0642,-0.0637,0,0,0,0,0,-0.0947,-0.0928,-0.0924,-0.0918,-0.0876,-0.0854,-0.0848,-0.0827,-0.0823,-0.0811,-0.0788,-0.0791,-0.0737,-0.0747,-0.0743,-0.0716,-0.0702,-0.07,-0.0698,-0.065,-0.0643,-0.0637,0,0,0,0,0,0,-0.0946,-0.0922,-0.0917,-0.0889,-0.0875,-0.0849,-0.0833,-0.0827,-0.0798,-0.0793,-0.0779,-0.0773,-0.0739,-0.074,-0.0751,-0.0696,-0.0721,-0.0718,-0.0686,-0.0679,-0.0674,-0.0675,-0.0754,0,0,0,0,0,-0.0944,-0.0925,-0.0907,-0.0884,-0.0877,-0.0857,-0.0845,-0.0833,-0.081,-0.0797,-0.0776,-0.0755,-0.073,-0.0715,-0.0697,-0.0668,-0.0688,-0.065,-0.0645,-0.064,-0.0639,-0.0656,-0.0652,-0.0691,-0.0691,-0.0691,0,0,-0.0935,-0.0922,-0.0909,-0.0884,-0.0868,-0.0836,-0.0848,-0.0827,-0.0794,-0.0799,-0.0744,-0.0738,-0.072,-0.0679,-0.0665,-0.0675,-0.0638,-0.0638,-0.0634,-0.0636,-0.0654,-0.065,-0.0647,-0.069,-0.069,-0.069,0,0,-0.0907,-0.0898,-0.0871,-0.0855,-0.0837,-0.0824,-0.082,-0.0793,-0.0774,-0.0735,-0.0725,-0.0705,-0.0665,-0.0643,-0.0628,-0.0589,-0.0613,-0.0584,-0.0551,-0.0567,-0.0564,-0.0562,-0.0575,-0.0575,-0.0577,-0.0577,-0.0577,0,-0.0892,-0.0855,-0.0861,-0.0829,-0.0805,-0.0816,-0.0775,-0.0758,-0.0723,-0.0701,-0.0711,-0.0653,-0.0644,-0.0593,-0.0575,-0.0575,-0.0593,-0.0573,-0.056,-0.0559,-0.0557,-0.0572,-0.0572,-0.0574,-0.0574,-0.0575,-0.0575,0,-0.0839,-0.0808,-0.0791,-0.0749,-0.0732,-0.0701,-0.0684,-0.0661,-0.0649,-0.0631,-0.0591,-0.0586,-0.0553,-0.0546,-0.0545,-0.052,-0.0538,-0.0556,-0.0577,-0.055,-0.0567,-0.0568,-0.057,-0.0571,-0.0572,-0.0573,0,0,-0.0787,-0.0757,-0.0744,-0.0713,-0.0685,-0.0657,-0.0615,-0.0572,-0.0528,-0.0525,-0.0471,-0.0453,-0.0472,-0.0459,-0.0466,-0.0478,-0.0482,-0.051,-0.0512,-0.0524,-0.0518,-0.0566,-0.0572,-0.0501,-0.0501,-0.0501,-0.0531,0,-0.0731,-0.0664,-0.0662,-0.0584,-0.0546,-0.0542,-0.0495,-0.0465,-0.0445,-0.0399,-0.0419,-0.0378,-0.0433,-0.0414,-0.044,-0.0456,-0.0484,-0.0472,-0.0542,-0.0544,-0.059,-0.0575,-0.0547,-0.0575,-0.0533,-0.0533,-0.0533,0,-0.0666,-0.0628,-0.0554,-0.0495,-0.0475,-0.0432,-0.0359,-0.0322,-0.0286,-0.0273,-0.0271,-0.0285,-0.0287,-0.0348,-0.0404,-0.0395,-0.0461,-0.0496,-0.0499,-0.0564,-0.0594,-0.0596,-0.0579,-0.0535,-0.0535,-0.0535,-0.0535,0,-0.0618,-0.0545,-0.0484,-0.0461,-0.0401,-0.0359,-0.0324,-0.0277,-0.0227,-0.0198,-0.0153,-0.0192,-0.0179,-0.0275,-0.0357,-0.038,-0.0426,-0.0466,-0.058,-0.0583,-0.0584,-0.0589,-0.0535,-0.0535,-0.0535,-0.0535,-0.0535,0,-0.0559,-0.0502,-0.0453,-0.0414,-0.0321,-0.0306,-0.021,-0.0182,-0.0128,-0.0038,-0.0091,-0.0034,-0.0162,-0.02,-0.0318,-0.044,-0.0404,-0.0574,-0.0596,-0.0565,-0.0567,-0.0555,-0.0557,-0.0536,-0.0536,-0.0536,-0.0536,0,-0.052,-0.0493,-0.041,-0.0333,-0.03,-0.0234,-0.0138,-0.0066,-0.003,0.0085,0.0102,0.0094,0.0039,-0.0094,-0.0223,-0.0367,-0.0489,-0.0551,-0.0507,-0.0525,-0.0652,-0.065,-0.069,-0.0692,-0.0693,-0.0695,-0.0696,0,-0.0494,-0.0452,-0.0347,-0.0284,-0.0244,-0.0151,-0.0074,-0.0024,0.0059,0.0181,0.0251,0.0229,0.0218,-0.0002,-0.0238,-0.0466,-0.0489,-0.061,-0.0671,-0.0651,-0.0668,-0.0664,-0.066,-0.0642,-0.0642,-0.0643,-0.0643,0,-0.043,-0.0398,-0.0326,-0.0203,-0.011,-0.0004,0.0106,0.0184,0.0278,0.0371,0.0501,0.0495,0.0285,0.0051,-0.0291,-0.0444,-0.0578,-0.0633,-0.0597,-0.0619,-0.0612,-0.0627,-0.0623,-0.0648,-0.0647,-0.0647,-0.0647,-0.0647,-0.0366,-0.0304,-0.0206,-0.0086,0.0019,0.0161,0.0273,0.0391,0.0533,0.0688,0.0656,0.0652,0.0361,-0.0083,-0.0333,-0.0597,-0.0628,-0.0738,-0.0733,-0.0729,-0.073,-0.0728,-0.0784,-0.0785,-0.0785,-0.0785,-0.0786,0,-0.0258,-0.019,-0.0084,0.0076,0.021,0.0243,0.0423,0.054,0.0737,0.0791,0.0858,0.0595,0.0288,-0.0006,-0.0421,-0.0706,-0.0695,-0.0762,-0.0694,-0.069,-0.0687,-0.0682,-0.0726,-0.0726,-0.0726,-0.0726,0,0,-0.0186,-0.0063,-0.0011,0.0233,0.0345,0.0548,0.0664,0.0816,0.0892,0.094,0.0903,0.0769,0.0367,0.0089,-0.0271,-0.0488,-0.0511,-0.0519,-0.0549,-0.0424,-0.0415,-0.0669,-0.0659,0,0,0,0,0]}],[{"header":{"parameterUnit":"m.s-1","parameterCategory":2,"la1":30.2991,"la2":30.254,"lo1":-89.0895,"lo2":-89.0444,"dy":0.0017,"dx":0.0017,"nx":28,"ny":28,"refTime":"2024-06-30T21:00:00:Z","depth":"4","parameterNumber":2,"parameterNumberName":"U-component_of_CURRENTS"},"data":[0,0,0,0,0,0,0,0,0,0,0,0,0,0,0,0,0,0,0,0,0,0,0,0,0,0,0,0,0,0,0,0,0,0,0,0,0,0,0,0,0,0,0,0,0,0,0,0,0,0,0,0,0,0,0,0,0,0,0.0728,0.0729,0,0.0802,0.0803,0.0804,0.0923,0.0925,0.0927,0.0928,0.1,0.1,0.1,0,0,0,0,0,0,0,0,0,0,0,0,0,0.0679,0.068,0.0728,0.0729,0.0729,0.0802,0.0803,0.0804,0.0923,0.0925,0.0927,0.0929,0.1,0.1,0.1,0,0,0,0,0,0,0,0,0,0,0,0,0,0.0725,0.068,0.0728,0.0794,0.0801,0.0801,0.0803,0.0805,0.0922,0.0925,0.0928,0.093,0.1,0.1,0.1,0.0947,0,0,0.1001,0.1002,0,0,0,0,0,0,0,0,0.0722,0.0727,0.0784,0.079,0.0797,0.0853,0.0812,0.0851,0.0921,0.088,0.0928,0.0932,0.0946,0.0951,0.0964,0.0951,0.0954,0.1001,0.1002,0.1002,0.1002,0,0,0,0,0,0,0,0.0719,0.0725,0.0761,0.0784,0.0792,0.0816,0.0826,0.082,0.09,0.0884,0.0892,0.0893,0.0951,0.0964,0.0967,0.0955,0.1001,0.1002,0.1002,0.1002,0.1044,0.1045,0,0,0,0,0,0,0.07,0.0721,0.0759,0.0763,0.0761,0.0815,0.0826,0.0835,0.09,0.0911,0.0891,0.0898,0.0962,0.0966,0.0969,0.1031,0.1002,0.1002,0.1002,0.1043,0.1044,0.1045,0,0,0,0,0,0,0.0699,0.0703,0.0756,0.0741,0.0749,0.0812,0.0822,0.0835,0.0862,0.0904,0.0917,0.0906,0.0964,0.0969,0.101,0.103,0.1002,0.1002,0.1042,0.1044,0.1045,0.1076,0,0,0,0,0,0,0.0697,0.0702,0.0714,0.0739,0.0749,0.0768,0.0819,0.0834,0.0856,0.0868,0.092,0.093,0.0967,0.101,0.101,0.103,0.1003,0.1041,0.1043,0.1044,0.1074,0.1078,0.1082,0,0,0,0,0,0.0695,0.0714,0.0715,0.072,0.076,0.0767,0.0775,0.0831,0.0854,0.0866,0.0925,0.0929,0.1022,0.101,0.1011,0.1031,0.104,0.1042,0.1044,0.1072,0.1078,0.1082,0,0,0,0,0,0,0.0706,0.0727,0.073,0.0755,0.0757,0.0786,0.0809,0.0821,0.0872,0.0908,0.0934,0.0947,0.0993,0.0998,0.0984,0.105,0.1032,0.1034,0.1053,0.1058,0.1062,0.1064,0.1003,0,0,0,0,0,0.0703,0.073,0.0728,0.075,0.0746,0.0765,0.0778,0.0817,0.0855,0.0881,0.0925,0.097,0.0994,0.1017,0.1048,0.1066,0.1063,0.1082,0.1086,0.1089,0.1092,0.1097,0.1102,0.1052,0.1052,0.1052,0,0,0.071,0.0729,0.0742,0.0754,0.0764,0.0777,0.0783,0.0818,0.0856,0.0876,0.096,0.0982,0.1001,0.1054,0.1072,0.1065,0.1105,0.1092,0.1095,0.1095,0.11,0.1104,0.1109,0.1054,0.1053,0.1053,0,0,0.0731,0.0748,0.0764,0.077,0.0791,0.0807,0.0806,0.0844,0.0888,0.0942,0.0977,0.1005,0.1057,0.1081,0.109,0.1118,0.1124,0.1137,0.1163,0.1168,0.1172,0.1176,0.119,0.1194,0.1143,0.1143,0.1143,0,0.0742,0.0758,0.0767,0.0782,0.0795,0.0812,0.0824,0.0864,0.0928,0.0957,0.0985,0.1059,0.1066,0.1098,0.1128,0.1125,0.1143,0.1142,0.1173,0.1176,0.1179,0.1193,0.1197,0.1145,0.1145,0.1145,0.1144,0,0.0744,0.078,0.079,0.0818,0.0831,0.0854,0.0885,0.093,0.0977,0.1019,0.108,0.1107,0.1151,0.115,0.1151,0.1177,0.1189,0.1173,0.1158,0.1186,0.1199,0.1203,0.1147,0.1147,0.1146,0.1146,0,0,0.0722,0.078,0.0788,0.0815,0.0857,0.0871,0.0927,0.0965,0.1011,0.1085,0.1133,0.1169,0.1197,0.1207,0.121,0.1209,0.1234,0.1213,0.1212,0.1223,0.1272,0.1249,0.1251,0.1239,0.124,0.124,0.1277,0,0.0719,0.0752,0.079,0.0846,0.0856,0.0905,0.0952,0.101,0.1065,0.1131,0.1158,0.1218,0.1217,0.1246,0.1248,0.1236,0.1246,0.1227,0.1247,0.1247,0.1219,0.1254,0.1242,0.128,0.1281,0.1282,0.1282,0,0.07,0.0728,0.076,0.0859,0.0867,0.0918,0.0985,0.1046,0.1128,0.1174,0.1236,0.1276,0.1306,0.1291,0.1307,0.1309,0.1302,0.1284,0.1284,0.1252,0.123,0.1244,0.1289,0.1288,0.1288,0.1287,0.1287,0,0.0649,0.0727,0.0755,0.0779,0.0869,0.0915,0.098,0.106,0.1116,0.1216,0.1258,0.1318,0.1357,0.1357,0.1356,0.1343,0.1362,0.1329,0.1303,0.1302,0.1296,0.1292,0.1336,0.1336,0.1336,0.1336,0.1336,0,0.0628,0.0665,0.0744,0.0763,0.0823,0.0907,0.0986,0.1058,0.1154,0.1216,0.1297,0.1335,0.1379,0.1405,0.1383,0.1373,0.1395,0.1317,0.131,0.1311,0.1308,0.13,0.1295,0.1337,0.1337,0.1337,0.1336,0,0.0576,0.0624,0.0674,0.0767,0.0805,0.0857,0.0994,0.1048,0.1152,0.1226,0.1265,0.1368,0.1414,0.1445,0.1445,0.1409,0.1386,0.1376,0.1401,0.1394,0.1314,0.131,0.1339,0.1339,0.1338,0.1338,0.1338,0,0.0551,0.0561,0.0656,0.0694,0.0749,0.0837,0.0893,0.1026,0.1074,0.1223,0.1242,0.1352,0.1403,0.14,0.143,0.1427,0.1405,0.1394,0.1326,0.1324,0.1315,0.1312,0.1309,0.1337,0.1337,0.1337,0.1337,0,0.049,0.0528,0.056,0.0628,0.0699,0.0767,0.0863,0.0893,0.1035,0.1129,0.1209,0.127,0.1334,0.1369,0.1406,0.1382,0.1395,0.1388,0.1388,0.1324,0.1321,0.1312,0.131,0.1335,0.1335,0.1335,0.1335,0,0.0443,0.0446,0.0494,0.0564,0.0641,0.0694,0.0751,0.0829,0.0902,0.1072,0.1089,0.1211,0.1313,0.1346,0.1356,0.137,0.1336,0.1275,0.1279,0.1282,0.1249,0.1236,0.1226,0,0,0,0,0,0.0393,0.0398,0.0438,0.0506,0.0582,0.0635,0.0728,0.0783,0.0903,0.0939,0.1024,0.1086,0.1173,0.1232,0.1234,0.1313,0.1322,0.1309,0.1248,0.1327,0.1328,0.1297,0,0,0,0,0,0,0.0357,0.0377,0.0401,0.0447,0.0496,0.0562,0.0625,0.0702,0.0728,0.0863,0.0913,0.1028,0.1115,0.1164,0.1216,0.1234,0.1177,0.139,0.1388,0.1326,0.1327,0.1329,0.1297,0,0,0,0,0]},{"header":{"parameterUnit":"m.s-1","parameterCategory":2,"la1":30.2991,"la2":30.254,"lo1":-89.0895,"lo2":-89.0444,"dy":0.0017,"dx":0.0017,"nx":28,"ny":28,"refTime":"2024-06-30T21:00:00:Z","depth":"4","parameterNumber":3,"parameterNumberName":"V-component_of_CURRENTS"},"data":[0,0,0,0,0,0,0,0,0,0,0,0,0,0,0,0,0,0,0,0,0,0,0,0,0,0,0,0,0,0,0,0,0,0,0,0,0,0,0,0,0,0,0,0,0,0,0,0,0,0,0,0,0,0,0,0,0,0,-0.0024,-0.0024,0,-0.0099,-0.01,-0.0101,-0.018,-0.0181,-0.0181,-0.0182,-0.026,-0.0261,-0.0262,0,0,0,0,0,0,0,0,0,0,0,0,0,0.0004,0.0004,-0.0024,-0.0024,-0.0025,-0.0099,-0.01,-0.0101,-0.018,-0.0181,-0.0182,-0.0182,-0.0259,-0.0261,-0.0263,0,0,0,0,0,0,0,0,0,0,0,0,0,-0.0037,0.0004,-0.0024,-0.007,-0.0074,-0.0098,-0.01,-0.0102,-0.018,-0.0181,-0.0182,-0.0183,-0.0259,-0.0261,-0.0263,-0.0255,0,0,-0.0269,-0.027,0,0,0,0,0,0,0,0,-0.0035,-0.0039,-0.0062,-0.0066,-0.0072,-0.0127,-0.0119,-0.0152,-0.0179,-0.0144,-0.0182,-0.0183,-0.0212,-0.0218,-0.0236,-0.0259,-0.0262,-0.027,-0.0271,-0.0272,-0.0272,0,0,0,0,0,0,0,-0.0032,-0.0036,-0.0058,-0.0063,-0.0068,-0.0102,-0.011,-0.0126,-0.0175,-0.0148,-0.0152,-0.0153,-0.0215,-0.0234,-0.0238,-0.0263,-0.0269,-0.0271,-0.0273,-0.0273,-0.0385,-0.0386,0,0,0,0,0,0,-0.001,-0.0033,-0.0055,-0.006,-0.005,-0.0101,-0.011,-0.0112,-0.0175,-0.0184,-0.0152,-0.0157,-0.023,-0.0236,-0.0241,-0.0312,-0.0272,-0.0274,-0.0275,-0.0383,-0.0385,-0.0387,0,0,0,0,0,0,-0.0009,-0.0011,-0.0052,-0.0045,-0.0052,-0.01,-0.0102,-0.0113,-0.013,-0.0178,-0.0188,-0.0158,-0.0231,-0.0238,-0.0286,-0.0312,-0.0275,-0.0277,-0.0381,-0.0384,-0.0386,-0.0404,0,0,0,0,0,0,-0.0008,-0.0011,-0.0007,-0.0043,-0.0051,-0.0071,-0.0101,-0.0113,-0.0127,-0.0133,-0.0186,-0.0195,-0.0232,-0.0283,-0.0288,-0.0315,-0.0278,-0.0379,-0.0382,-0.0385,-0.0401,-0.0406,-0.0411,0,0,0,0,0,-0.0007,-0.0001,-0.0006,-0.0009,-0.0044,-0.0071,-0.0079,-0.012,-0.0126,-0.0138,-0.019,-0.0193,-0.0307,-0.0286,-0.0291,-0.0319,-0.0377,-0.0381,-0.0385,-0.0399,-0.0405,-0.0411,0,0,0,0,0,0,0.0001,-0.0009,-0.0015,-0.0016,-0.004,-0.0083,-0.0092,-0.0108,-0.0156,-0.017,-0.0207,-0.022,-0.0279,-0.0291,-0.0266,-0.0364,-0.0345,-0.035,-0.0353,-0.0359,-0.0364,-0.0339,-0.028,0,0,0,0,0,0.0013,0.0016,-0.0005,-0.0008,-0.0012,-0.0045,-0.0058,-0.0091,-0.0132,-0.0154,-0.0199,-0.0249,-0.0297,-0.032,-0.0368,-0.0403,-0.04,-0.0428,-0.0434,-0.0438,-0.0424,-0.045,-0.0455,-0.0399,-0.0399,-0.0399,0,0,0.0016,0.001,0.0012,-0.0005,-0.0024,-0.0051,-0.0058,-0.0085,-0.0122,-0.0153,-0.0222,-0.0267,-0.0312,-0.0379,-0.0403,-0.0391,-0.0456,-0.0442,-0.0445,-0.0429,-0.0454,-0.0459,-0.0464,-0.0402,-0.0402,-0.0401,0,0,0.0009,0.0021,0.0014,-0.0002,-0.0028,-0.0052,-0.0052,-0.0102,-0.0134,-0.0198,-0.024,-0.0291,-0.0366,-0.041,-0.0435,-0.0485,-0.0484,-0.051,-0.051,-0.0537,-0.0541,-0.0544,-0.0553,-0.0557,-0.0509,-0.0509,-0.0509,0,0.0004,0.0003,0.0006,-0.0015,-0.0022,-0.0047,-0.0067,-0.0107,-0.0179,-0.0196,-0.0228,-0.0342,-0.038,-0.0438,-0.0476,-0.0494,-0.0505,-0.0481,-0.0541,-0.0544,-0.0547,-0.0555,-0.0559,-0.051,-0.051,-0.051,-0.051,0,-0.0011,-0.0017,-0.002,-0.0048,-0.0061,-0.0079,-0.0119,-0.015,-0.0187,-0.0233,-0.0304,-0.0375,-0.0432,-0.0466,-0.0491,-0.0538,-0.0538,-0.0545,-0.0517,-0.0553,-0.056,-0.0564,-0.0512,-0.0512,-0.0511,-0.0511,0,0,-0.0029,-0.0028,-0.0036,-0.0033,-0.0073,-0.0083,-0.0127,-0.0161,-0.0175,-0.0273,-0.0301,-0.0408,-0.0437,-0.0467,-0.0508,-0.0538,-0.0581,-0.0554,-0.0555,-0.0547,-0.0633,-0.0609,-0.061,-0.0603,-0.0604,-0.0605,-0.063,0,-0.0048,-0.0051,-0.0064,-0.0086,-0.0079,-0.0102,-0.0131,-0.0173,-0.0216,-0.0261,-0.0329,-0.0388,-0.0441,-0.0469,-0.0514,-0.0561,-0.0592,-0.0572,-0.0611,-0.0612,-0.0573,-0.0614,-0.0607,-0.0633,-0.0634,-0.0634,-0.0635,0,-0.0077,-0.006,-0.0057,-0.0055,-0.0057,-0.0085,-0.009,-0.0131,-0.019,-0.022,-0.0288,-0.0348,-0.0419,-0.0454,-0.0551,-0.054,-0.0587,-0.0623,-0.0625,-0.0592,-0.0595,-0.0591,-0.0642,-0.0641,-0.0641,-0.064,-0.064,0,-0.0056,-0.007,-0.0045,-0.0049,-0.0055,-0.0058,-0.0076,-0.0118,-0.0129,-0.0195,-0.0205,-0.0311,-0.0353,-0.0439,-0.0537,-0.0546,-0.0629,-0.0643,-0.0662,-0.0661,-0.0663,-0.0659,-0.07,-0.07,-0.07,-0.07,-0.07,0,-0.0057,-0.0049,-0.0028,-0.0014,0.001,-0.0025,-0.002,-0.0046,-0.0083,-0.0089,-0.0186,-0.0206,-0.0353,-0.0428,-0.0519,-0.0602,-0.0617,-0.066,-0.0669,-0.0673,-0.067,-0.0666,-0.0662,-0.0701,-0.0701,-0.0701,-0.0701,0,-0.0036,-0.0027,0.0002,0.0019,0.0024,0.0037,0.0034,0.0036,-0.0003,-0.0009,-0.0027,-0.0128,-0.0229,-0.0364,-0.0493,-0.0558,-0.0647,-0.067,-0.0653,-0.066,-0.0664,-0.066,-0.0688,-0.0688,-0.0687,-0.0687,-0.0686,0,-0.0012,0.0007,0.0047,0.007,0.0079,0.0099,0.0114,0.0083,0.0087,0.0045,0.0046,-0.0054,-0.0132,-0.0287,-0.0441,-0.0605,-0.063,-0.0664,-0.0682,-0.0658,-0.0664,-0.0661,-0.0659,-0.0686,-0.0685,-0.0685,-0.0685,0,0.0035,0.0041,0.0075,0.0128,0.0152,0.0189,0.02,0.0216,0.018,0.0163,0.0124,0.0017,-0.0092,-0.0259,-0.0391,-0.0512,-0.0639,-0.066,-0.0662,-0.0679,-0.0656,-0.0661,-0.0659,-0.0684,-0.0684,-0.0684,-0.0684,0,0.0067,0.0096,0.0127,0.0168,0.0206,0.0238,0.0255,0.0258,0.0256,0.0209,0.0201,0.0064,-0.0025,-0.0209,-0.0331,-0.0452,-0.0484,-0.0509,-0.052,-0.0523,-0.0479,-0.0426,-0.0388,0,0,0,0,0,0.0093,0.0109,0.0159,0.0194,0.0234,0.0248,0.0287,0.0296,0.0284,0.0276,0.0237,0.0135,-0.0053,-0.0148,-0.0262,-0.034,-0.052,-0.0477,-0.0557,-0.0674,-0.0676,-0.0652,0,0,0,0,0,0,0.0101,0.0141,0.0159,0.02,0.0222,0.0262,0.0285,0.0291,0.0283,0.0263,0.0162,0.0117,-0.0077,0.0006,-0.0266,-0.0306,-0.0366,-0.0572,-0.0574,-0.0673,-0.0675,-0.0676,-0.0653,0,0,0,0,0]}]]